[[{"header":{"parameterUnit":"m.s-1","parameterCategory":1,"la1":30.2991,"la2":30.254,"lo1":-89.0895,"lo2":-89.0444,"dy":0.0017,"dx":0.0017,"nx":28,"ny":28,"refTime":"2023-09-01T21:00:00:Z","depth":0,"parameterNumber":2,"parameterNumberName":"U-component_of_WINDS"},"data":[0,0,0,0,0,0,0,0,0,0,0,0,0,0,0,0,0,0,0,0,0,0,0,0,0,0,0,0,0,0,0,0,0,0,0,0,0,0,0,0,0,0,0,0,0,0,0,0,0,0,0,0,0,0,0,0,0,0,-1.8629,-1.8629,0,-1.8579,-1.8579,-1.8578,-1.8512,-1.8511,-1.851,-1.8509,-1.8458,-1.8458,-1.8457,0,0,0,0,0,0,0,0,0,0,0,0,0,-1.8668,-1.8667,-1.8629,-1.8629,-1.8628,-1.8579,-1.8579,-1.8578,-1.8512,-1.8511,-1.8509,-1.8508,-1.8458,-1.8458,-1.8457,0,0,0,0,0,0,0,0,0,0,0,0,0,-1.8638,-1.8667,-1.8629,-1.8589,-1.8585,-1.8579,-1.8579,-1.8578,-1.8512,-1.8511,-1.8509,-1.8508,-1.8458,-1.8458,-1.8457,-1.8487,0,0,-1.8456,-1.8456,0,0,0,0,0,0,0,0,-1.864,-1.8637,-1.8596,-1.8592,-1.8587,-1.855,-1.8574,-1.8547,-1.8513,-1.854,-1.8509,-1.8507,-1.849,-1.8487,-1.8481,-1.8485,-1.8483,-1.8456,-1.8456,-1.8455,-1.8455,0,0,0,0,0,0,0,-1.8642,-1.8638,-1.8609,-1.8595,-1.859,-1.8574,-1.8568,-1.8568,-1.8525,-1.8537,-1.8533,-1.8528,-1.8487,-1.8482,-1.8479,-1.8482,-1.8456,-1.8455,-1.8455,-1.8455,-1.8507,-1.8508,0,0,0,0,0,0,-1.865,-1.864,-1.8611,-1.8608,-1.861,-1.8574,-1.8568,-1.8564,-1.8525,-1.8517,-1.8529,-1.8525,-1.8483,-1.848,-1.8477,-1.8509,-1.8455,-1.8455,-1.8455,-1.8505,-1.8507,-1.8509,0,0,0,0,0,0,-1.8651,-1.8648,-1.8613,-1.8623,-1.8617,-1.8575,-1.8572,-1.8564,-1.8558,-1.8518,-1.851,-1.8531,-1.8482,-1.8478,-1.8485,-1.8506,-1.8455,-1.8454,-1.8503,-1.8506,-1.8508,-1.8573,0,0,0,0,0,0,-1.8652,-1.8649,-1.866,-1.8624,-1.8617,-1.8622,-1.8573,-1.8564,-1.8557,-1.8551,-1.8518,-1.8511,-1.848,-1.8486,-1.8485,-1.8505,-1.8454,-1.8501,-1.8504,-1.8507,-1.8569,-1.8578,-1.8585,0,0,0,0,0,-1.8654,-1.868,-1.866,-1.8657,-1.863,-1.8623,-1.8619,-1.8583,-1.8559,-1.857,-1.8544,-1.8512,-1.8504,-1.8487,-1.8485,-1.8506,-1.8499,-1.8503,-1.8507,-1.8565,-1.8576,-1.8585,0,0,0,0,0,0,-1.872,-1.8675,-1.8652,-1.8668,-1.865,-1.8612,-1.8624,-1.8596,-1.8584,-1.8579,-1.8535,-1.8528,-1.854,-1.8523,-1.8505,-1.8532,-1.8497,-1.8501,-1.8542,-1.8552,-1.856,-1.8564,-1.8453,0,0,0,0,0,-1.8736,-1.8735,-1.8695,-1.8713,-1.8705,-1.8666,-1.8662,-1.8636,-1.8615,-1.8607,-1.8582,-1.8564,-1.8557,-1.8554,-1.8545,-1.8566,-1.8558,-1.8579,-1.8587,-1.8594,-1.8598,-1.8607,-1.8615,-1.8521,-1.8521,-1.8521,0,0,-1.877,-1.8745,-1.8747,-1.8725,-1.8708,-1.8707,-1.866,-1.8661,-1.866,-1.8608,-1.8612,-1.8594,-1.857,-1.8584,-1.8589,-1.857,-1.8622,-1.8599,-1.8605,-1.8604,-1.8611,-1.862,-1.8628,-1.8524,-1.8523,-1.8523,0,0,-1.8831,-1.8812,-1.8824,-1.8808,-1.8783,-1.8757,-1.876,-1.8726,-1.8712,-1.8716,-1.8676,-1.8674,-1.8664,-1.8648,-1.8639,-1.8694,-1.8664,-1.8693,-1.8735,-1.8744,-1.8751,-1.8758,-1.8777,-1.8784,-1.8696,-1.8696,-1.8696,0,-1.8876,-1.8873,-1.8834,-1.8838,-1.8829,-1.8781,-1.8793,-1.8779,-1.8753,-1.8748,-1.8728,-1.8713,-1.8694,-1.8703,-1.8717,-1.8711,-1.8713,-1.8696,-1.8754,-1.876,-1.8765,-1.8782,-1.879,-1.87,-1.87,-1.8699,-1.8699,0,-1.893,-1.8929,-1.8942,-1.8917,-1.891,-1.8917,-1.8879,-1.8877,-1.8851,-1.8828,-1.8832,-1.8808,-1.8793,-1.8793,-1.8769,-1.8799,-1.8788,-1.8762,-1.8726,-1.8778,-1.8794,-1.88,-1.8705,-1.8704,-1.8703,-1.8702,0,0,-1.9031,-1.8984,-1.899,-1.8978,-1.8946,-1.8944,-1.895,-1.8935,-1.8934,-1.8917,-1.892,-1.8912,-1.8887,-1.8877,-1.885,-1.8858,-1.8903,-1.883,-1.8829,-1.8844,-1.8934,-1.8954,-1.8963,-1.8883,-1.8884,-1.8885,-1.8936,0,-1.9086,-1.9092,-1.9057,-1.9073,-1.9071,-1.9025,-1.903,-1.9011,-1.8989,-1.8984,-1.896,-1.8954,-1.8922,-1.8915,-1.8922,-1.8896,-1.892,-1.8892,-1.8885,-1.8885,-1.8892,-1.8971,-1.8992,-1.9042,-1.8942,-1.8943,-1.8944,0,-1.915,-1.9137,-1.9152,-1.9119,-1.9117,-1.9122,-1.9106,-1.9102,-1.9079,-1.9063,-1.9051,-1.902,-1.9023,-1.8989,-1.8992,-1.8974,-1.8969,-1.8956,-1.8957,-1.8954,-1.8917,-1.897,-1.9056,-1.9064,-1.8953,-1.8952,-1.8952,0,-1.9222,-1.9208,-1.9215,-1.9206,-1.9168,-1.9172,-1.9157,-1.9132,-1.9126,-1.9112,-1.9107,-1.9094,-1.9086,-1.9077,-1.9042,-1.9021,-1.9049,-1.9013,-1.9035,-1.9036,-1.9043,-1.9043,-1.9129,-1.9041,-1.9041,-1.9041,-1.9041,0,-1.9286,-1.9298,-1.9246,-1.9251,-1.9262,-1.9221,-1.9233,-1.9213,-1.9192,-1.9192,-1.9152,-1.9152,-1.9107,-1.9103,-1.9076,-1.9083,-1.908,-1.9066,-1.9059,-1.9069,-1.9071,-1.9065,-1.9061,-1.9043,-1.9042,-1.9042,-1.9042,0,-1.9368,-1.9334,-1.9339,-1.9302,-1.9293,-1.9303,-1.9272,-1.9274,-1.925,-1.925,-1.9247,-1.9209,-1.9201,-1.9167,-1.9151,-1.9133,-1.9148,-1.9134,-1.9156,-1.9151,-1.9175,-1.9173,-1.926,-1.9269,-1.9176,-1.9177,-1.9178,0,-1.9411,-1.9418,-1.9383,-1.9379,-1.9365,-1.9361,-1.9354,-1.9314,-1.9308,-1.9283,-1.9289,-1.9278,-1.9267,-1.9257,-1.9228,-1.9216,-1.9201,-1.9232,-1.9199,-1.9209,-1.92,-1.92,-1.92,-1.9239,-1.9241,-1.9242,-1.9242,0,-1.9491,-1.9473,-1.9465,-1.945,-1.9443,-1.943,-1.9414,-1.9414,-1.937,-1.9365,-1.9357,-1.9349,-1.9333,-1.9322,-1.9305,-1.9289,-1.9258,-1.9253,-1.9258,-1.9268,-1.928,-1.9273,-1.9175,-1.9251,-1.925,-1.925,-1.9249,-1.9249,-1.9554,-1.9558,-1.9533,-1.9525,-1.9509,-1.9495,-1.9495,-1.9471,-1.9463,-1.9447,-1.9424,-1.9418,-1.9395,-1.9369,-1.9355,-1.935,-1.9333,-1.934,-1.9341,-1.9343,-1.9348,-1.9281,-1.9347,-1.9347,-1.9346,-1.9346,-1.9346,0,-1.9631,-1.9612,-1.9605,-1.9584,-1.9578,-1.9549,-1.953,-1.9527,-1.9522,-1.9503,-1.9494,-1.9484,-1.9474,-1.9443,-1.943,-1.9432,-1.9418,-1.943,-1.9429,-1.9425,-1.9365,-1.9362,-1.9441,-1.9441,-1.9441,-1.9441,-1.9441,-1.9441,-1.967,-1.9675,-1.9655,-1.9652,-1.9634,-1.9628,-1.962,-1.9607,-1.9591,-1.9582,-1.9573,-1.9554,-1.953,-1.9514,-1.9504,-1.9495,-1.9492,-1.9508,-1.9495,-1.9439,-1.943,-1.9421,-1.9418,-1.9508,-1.9508,-1.9556,-1.9556,-1.9557]},{"header":{"parameterUnit":"m.s-1","parameterCategory":1,"la1":30.2991,"la2":30.254,"lo1":-89.0895,"lo2":-89.0444,"dy":0.0017,"dx":0.0017,"nx":28,"ny":28,"refTime":"2023-09-01T21:00:00:Z","depth":0,"parameterNumber":3,"parameterNumberName":"V-component_of_WINDS"},"data":[0,0,0,0,0,0,0,0,0,0,0,0,0,0,0,0,0,0,0,0,0,0,0,0,0,0,0,0,0,0,0,0,0,0,0,0,0,0,0,0,0,0,0,0,0,0,0,0,0,0,0,0,0,0,0,0,0,0,0.3647,0.3646,0,0.3595,0.3594,0.3593,0.3607,0.3608,0.3609,0.361,0.3554,0.3552,0.355,0,0,0,0,0,0,0,0,0,0,0,0,0,0.3757,0.3755,0.3647,0.3646,0.3646,0.3595,0.3594,0.3593,0.3607,0.3608,0.3609,0.361,0.3555,0.3552,0.3549,0,0,0,0,0,0,0,0,0,0,0,0,0,0.3708,0.3755,0.3647,0.3646,0.3646,0.3595,0.3594,0.3593,0.3606,0.3608,0.361,0.3611,0.3556,0.3553,0.3549,0.3495,0,0,0.3538,0.3536,0,0,0,0,0,0,0,0,0.371,0.3704,0.3647,0.3646,0.3646,0.3609,0.3612,0.356,0.3606,0.3621,0.361,0.3612,0.3571,0.3566,0.3553,0.3492,0.349,0.3537,0.3535,0.3534,0.3532,0,0,0,0,0,0,0,0.3714,0.3706,0.3626,0.3646,0.3645,0.3648,0.3643,0.3603,0.3588,0.362,0.3621,0.3615,0.3571,0.3556,0.3552,0.3489,0.3537,0.3534,0.3532,0.353,0.3381,0.3379,0,0,0,0,0,0,0.3718,0.3709,0.3628,0.3625,0.3683,0.3645,0.3639,0.3619,0.3589,0.3585,0.3613,0.3616,0.3562,0.3556,0.355,0.3483,0.3534,0.353,0.3528,0.3382,0.338,0.3378,0,0,0,0,0,0,0.372,0.3711,0.363,0.3667,0.3657,0.3641,0.3619,0.3617,0.3603,0.3583,0.3581,0.3601,0.3563,0.3555,0.3508,0.3482,0.3528,0.3525,0.3384,0.3382,0.3379,0.3351,0,0,0,0,0,0,0.3724,0.3712,0.3691,0.3666,0.3655,0.359,0.3617,0.3615,0.3597,0.3599,0.3571,0.3568,0.3564,0.3514,0.3505,0.3477,0.3522,0.3387,0.3383,0.338,0.3354,0.3348,0.3342,0,0,0,0,0,0.3727,0.3685,0.369,0.368,0.3629,0.3588,0.3581,0.3577,0.3594,0.3573,0.3561,0.3569,0.3487,0.3509,0.3499,0.347,0.3388,0.3384,0.338,0.3357,0.3349,0.3342,0,0,0,0,0,0,0.3706,0.3682,0.3687,0.3635,0.3614,0.3591,0.3564,0.3569,0.3542,0.3545,0.3541,0.3535,0.3487,0.3474,0.3499,0.3416,0.344,0.3434,0.3425,0.3418,0.3412,0.3415,0.3519,0,0,0,0,0,0.3696,0.3665,0.3645,0.3602,0.3591,0.3579,0.3561,0.356,0.3537,0.3528,0.3512,0.3489,0.3458,0.3438,0.3408,0.3353,0.3347,0.3329,0.3323,0.3318,0.3312,0.3281,0.3272,0.3365,0.3365,0.3365,0,0,0.3673,0.3656,0.3637,0.3597,0.358,0.3548,0.3571,0.3536,0.3512,0.3523,0.3477,0.3465,0.3439,0.3388,0.3365,0.3376,0.3285,0.3313,0.3309,0.3305,0.3276,0.3267,0.3259,0.3363,0.3363,0.3363,0,0,0.3616,0.36,0.3562,0.3544,0.3519,0.3512,0.3503,0.3478,0.3471,0.3426,0.3433,0.3404,0.3351,0.3332,0.3315,0.3251,0.3257,0.3242,0.3209,0.3179,0.3171,0.3165,0.314,0.3132,0.3236,0.3236,0.3236,0,0.359,0.3542,0.3541,0.3505,0.3487,0.3496,0.3456,0.344,0.3406,0.3392,0.3406,0.3339,0.3323,0.3267,0.3251,0.3238,0.3226,0.3243,0.3173,0.3166,0.316,0.3137,0.3128,0.3234,0.3234,0.3235,0.3235,0,0.3512,0.3479,0.3451,0.3418,0.3397,0.3359,0.3351,0.333,0.3331,0.3322,0.3276,0.3257,0.3223,0.321,0.3211,0.3154,0.3161,0.3174,0.3198,0.3149,0.3127,0.3118,0.3231,0.3232,0.3233,0.3233,0,0,0.3438,0.3405,0.3395,0.3379,0.3352,0.3326,0.3289,0.3257,0.3238,0.3215,0.3182,0.3138,0.3149,0.313,0.3129,0.3103,0.3052,0.3119,0.3118,0.3105,0.2986,0.2975,0.2965,0.3057,0.3055,0.3054,0.2988,0,0.3376,0.3311,0.3308,0.3248,0.3217,0.3226,0.3193,0.3173,0.3164,0.3136,0.3126,0.3094,0.3112,0.3101,0.3076,0.3063,0.3027,0.3068,0.3025,0.3024,0.3029,0.2954,0.2942,0.2881,0.2979,0.2978,0.2977,0,0.3295,0.3269,0.3206,0.3183,0.317,0.314,0.311,0.3084,0.3061,0.3056,0.3036,0.3038,0.3,0.3027,0.2973,0.3,0.2983,0.2975,0.2972,0.2966,0.2996,0.2944,0.2861,0.2851,0.2964,0.2965,0.2966,0,0.3244,0.3194,0.3149,0.3137,0.3109,0.3088,0.3076,0.3055,0.3035,0.3009,0.2996,0.2966,0.2949,0.2925,0.292,0.294,0.2865,0.2892,0.2859,0.2859,0.2841,0.2842,0.2752,0.2833,0.2834,0.2834,0.2834,0,0.3174,0.3135,0.3126,0.3099,0.3055,0.3053,0.3009,0.2998,0.2979,0.2949,0.2956,0.2928,0.2923,0.2894,0.2889,0.2844,0.2837,0.2831,0.283,0.2829,0.283,0.2816,0.282,0.2831,0.2832,0.2832,0.2833,0,0.3109,0.3102,0.3054,0.3033,0.3026,0.2995,0.2976,0.2949,0.2942,0.2904,0.2895,0.2883,0.2848,0.2841,0.28,0.2797,0.2743,0.2748,0.2751,0.2751,0.2718,0.272,0.2615,0.26,0.2692,0.2692,0.2691,0,0.3064,0.3034,0.3009,0.299,0.2976,0.2945,0.2926,0.2923,0.2902,0.2874,0.285,0.2817,0.279,0.2734,0.2721,0.269,0.2692,0.2658,0.2687,0.2687,0.2689,0.269,0.2687,0.2651,0.265,0.2649,0.2649,0,0.2983,0.2982,0.2953,0.2923,0.29,0.2876,0.2854,0.2838,0.2832,0.2808,0.2773,0.2752,0.2711,0.2677,0.2646,0.2633,0.2639,0.264,0.263,0.2628,0.263,0.2627,0.2733,0.2642,0.2642,0.2643,0.2643,0.2643,0.2925,0.2899,0.2877,0.2845,0.2828,0.2807,0.2781,0.2771,0.2742,0.2708,0.2708,0.267,0.2648,0.2607,0.2592,0.2561,0.2572,0.2558,0.2555,0.2551,0.2547,0.2637,0.2556,0.2556,0.2556,0.2556,0.2556,0,0.2844,0.2831,0.2801,0.277,0.2745,0.2754,0.273,0.2708,0.2674,0.2654,0.2627,0.2586,0.2554,0.2539,0.2507,0.2485,0.2487,0.2477,0.2477,0.2474,0.254,0.255,0.2476,0.2476,0.2476,0.2476,0.2476,0.2476,0.2798,0.2753,0.2749,0.2695,0.2682,0.2645,0.263,0.261,0.2594,0.2549,0.2522,0.2513,0.2494,0.2461,0.2431,0.2428,0.2414,0.2402,0.24,0.2461,0.2469,0.2477,0.2487,0.24,0.24,0.2336,0.2335,0.2335]}]]